When you browse on this site, cookies collect data to enhance your experience and personalize the content and advertising you see.
Visit our Privacy Policy to learn more. By continuing to use the site, you agree to this use of cookies and data.
  • In United Kingdom
  • List of Countries
  • For 7 days
  • Water Temperature
  • Weather Map
  • Weather Widgets
  • user-avatar
    Login

    Hourly Weather Matlock

    Today, 27 February, Thursday

    Time Temperature Precipitation Wind Pressure Humidity
    00:00 -1°C° 0 mm 4 mps 734 mmHg 86%
    01:00 -1°C° 0.1 mm 4 mps 734 mmHg 89%
    02:00 -1°C° 0.1 mm 4 mps 733 mmHg 91%
    03:00 0°C° 0.1 mm 3 mps 732 mmHg 94%
    04:00 0°C° 0.3 mm 3 mps 732 mmHg 95%
    05:00 +1°C° 0.3 mm 2 mps 731 mmHg 96%
    06:00 +2°C° 0.3 mm 1 mps 731 mmHg 97%
    07:00 +1°C° 0.3 mm 2 mps 731 mmHg 96%
    08:00 0°C° 0.3 mm 3 mps 731 mmHg 96%
    09:00 +1°C° 0.3 mm 3 mps 731 mmHg 96%
    10:00 0°C° 0.1 mm 4 mps 732 mmHg 87%
    11:00 +1°C° 0.1 mm 5 mps 733 mmHg 79%
    12:00 +2°C° 0.1 mm 6 mps 733 mmHg 70%
    13:00 +2°C° 0 mm 7 mps 734 mmHg 68%
    14:00 +2°C° 0 mm 7 mps 734 mmHg 66%
    15:00 +2°C° 0 mm 8 mps 735 mmHg 64%
    16:00 +2°C° 0 mm 7 mps 736 mmHg 67%
    17:00 +1°C° 0 mm 6 mps 737 mmHg 69%
    18:00 0°C° 0 mm 5 mps 738 mmHg 72%
    19:00 0°C° 0 mm 5 mps 739 mmHg 75%
    20:00 -1°C° 0 mm 4 mps 739 mmHg 78%
    21:00 -1°C° 0 mm 4 mps 740 mmHg 80%
    22:00 -1°C° 0 mm 4 mps 740 mmHg 82%
    23:00 -1°C° 0 mm 3 mps 741 mmHg 84%

    Tomorrow, 28 February, Friday

    Time Temperature Precipitation Wind Pressure Humidity
    00:00 -1°C° 0 mm 3 mps 741 mmHg 85%
    01:00 -1°C° 0 mm 3 mps 741 mmHg 85%
    02:00 -1°C° 0 mm 3 mps 741 mmHg 84%
    03:00 0°C° 0 mm 3 mps 741 mmHg 83%
    04:00 0°C° 0 mm 3 mps 740 mmHg 83%
    05:00 0°C° 0 mm 3 mps 740 mmHg 82%
    06:00 -1°C° 0 mm 4 mps 739 mmHg 81%
    07:00 -1°C° 0.2 mm 5 mps 739 mmHg 84%
    08:00 -2°C° 0.2 mm 6 mps 738 mmHg 87%
    09:00 -2°C° 0.2 mm 6 mps 737 mmHg 89%
    10:00 -2°C° 1.7 mm 7 mps 736 mmHg 92%
    11:00 -1°C° 1.7 mm 7 mps 734 mmHg 94%
    12:00 -1°C° 1.7 mm 8 mps 733 mmHg 97%
    13:00 0°C° 1.2 mm 7 mps 731 mmHg 97%
    14:00 +2°C° 1.2 mm 6 mps 730 mmHg 97%
    15:00 +3°C° 1.2 mm 6 mps 728 mmHg 97%
    16:00 +4°C° 0.4 mm 6 mps 728 mmHg 96%
    17:00 +5°C° 0.4 mm 7 mps 727 mmHg 95%
    18:00 +6°C° 0.4 mm 7 mps 727 mmHg 94%
    19:00 +6°C° 0.3 mm 7 mps 726 mmHg 93%
    20:00 +6°C° 0.3 mm 7 mps 726 mmHg 93%
    21:00 +6°C° 0.3 mm 7 mps 725 mmHg 93%
    22:00 +6°C° 0.8 mm 8 mps 724 mmHg 93%
    23:00 +6°C° 0.8 mm 8 mps 723 mmHg 93%

    Day after tomorrow, 29 February, Saturday

    Time Temperature Precipitation Wind Pressure Humidity
    00:00 +7°C° 0.8 mm 9 mps 723 mmHg 93%
    01:00 +7°C° 0.4 mm 9 mps 721 mmHg 91%
    02:00 +7°C° 0.4 mm 10 mps 719 mmHg 90%
    03:00 +7°C° 0.4 mm 10 mps 718 mmHg 89%
    04:00 +7°C° 0.3 mm 10 mps 717 mmHg 88%
    05:00 +7°C° 0.3 mm 10 mps 716 mmHg 87%
    06:00 +7°C° 0.3 mm 10 mps 714 mmHg 86%
    07:00 +5°C° 0.4 mm 10 mps 714 mmHg 85%
    08:00 +3°C° 0.4 mm 9 mps 714 mmHg 84%
    09:00 +1°C° 0.4 mm 9 mps 714 mmHg 83%
    10:00 +1°C° 0.2 mm 9 mps 714 mmHg 76%
    11:00 +1°C° 0.2 mm 10 mps 714 mmHg 68%
    12:00 +2°C° 0.2 mm 10 mps 715 mmHg 60%
    13:00 +1°C° 0.1 mm 11 mps 713 mmHg 61%
    14:00 0°C° 0.1 mm 12 mps 711 mmHg 62%
    15:00 0°C° 0.1 mm 12 mps 710 mmHg 63%
    16:00 0°C° 1.6 mm 13 mps 708 mmHg 71%
    17:00 +1°C° 1.6 mm 13 mps 706 mmHg 79%
    18:00 +1°C° 1.6 mm 13 mps 705 mmHg 86%
    19:00 0°C° 0.6 mm 13 mps 705 mmHg 88%
    20:00 0°C° 0.6 mm 13 mps 706 mmHg 89%
    21:00 -1°C° 0.6 mm 13 mps 706 mmHg 90%
    22:00 -1°C° 0.2 mm 13 mps 708 mmHg 88%
    23:00 -2°C° 0.2 mm 13 mps 710 mmHg 86%

    1 March, Sunday

    Time Temperature Precipitation Wind Pressure Humidity
    00:00 -2°C° 0.2 mm 12 mps 711 mmHg 85%
    01:00 -2°C° 1.3 mm 13 mps 712 mmHg 86%
    02:00 -2°C° 1.3 mm 13 mps 714 mmHg 88%
    03:00 -2°C° 1.3 mm 14 mps 715 mmHg 90%
    04:00 -2°C° 0.3 mm 13 mps 716 mmHg 85%
    05:00 -2°C° 0.3 mm 13 mps 716 mmHg 80%
    06:00 -3°C° 0.3 mm 12 mps 717 mmHg 74%
    07:00 -2°C° 0 mm 11 mps 718 mmHg 74%
    08:00 -2°C° 0 mm 11 mps 718 mmHg 73%
    09:00 -2°C° 0 mm 10 mps 719 mmHg 73%
    10:00 -2°C° 0 mm 11 mps 720 mmHg 70%
    11:00 -1°C° 0 mm 11 mps 720 mmHg 67%
    12:00 +1°C° 0 mm 11 mps 721 mmHg 64%
    13:00 +1°C° 0 mm 11 mps 721 mmHg 64%
    14:00 +1°C° 0 mm 10 mps 721 mmHg 64%
    15:00 +1°C° 0 mm 10 mps 721 mmHg 65%
    16:00 0°C° 0 mm 9 mps 722 mmHg 67%
    17:00 0°C° 0 mm 9 mps 722 mmHg 70%
    18:00 -1°C° 0 mm 8 mps 722 mmHg 72%
    19:00 -1°C° 0 mm 7 mps 723 mmHg 73%
    20:00 -1°C° 0 mm 7 mps 723 mmHg 74%
    21:00 -2°C° 0 mm 7 mps 723 mmHg 75%
    22:00 -2°C° 0 mm 7 mps 724 mmHg 76%
    23:00 -2°C° 0 mm 6 mps 724 mmHg 77%

    2 March, Monday

    Time Temperature Precipitation Wind Pressure Humidity
    00:00 -3°C° 0 mm 6 mps 725 mmHg 77%
    01:00 -3°C° 0 mm 6 mps 725 mmHg 79%
    02:00 -2°C° 0 mm 5 mps 725 mmHg 80%
    03:00 -2°C° 0 mm 5 mps 725 mmHg 81%
    04:00 -2°C° 0 mm 5 mps 726 mmHg 82%
    05:00 -3°C° 0 mm 4 mps 726 mmHg 83%
    06:00 -3°C° 0 mm 4 mps 726 mmHg 85%
    07:00 -2°C° 0 mm 4 mps 727 mmHg 80%
    08:00 -1°C° 0 mm 5 mps 727 mmHg 76%
    09:00 0°C° 0 mm 5 mps 728 mmHg 72%
    10:00 +1°C° 0 mm 5 mps 728 mmHg 69%
    11:00 +2°C° 0 mm 5 mps 729 mmHg 66%
    12:00 +3°C° 0 mm 5 mps 729 mmHg 63%
    13:00 +3°C° 0.2 mm 5 mps 729 mmHg 68%
    14:00 +2°C° 0.2 mm 5 mps 730 mmHg 73%
    15:00 +2°C° 0.2 mm 5 mps 730 mmHg 79%
    16:00 +1°C° 0.1 mm 4 mps 730 mmHg 82%
    17:00 +1°C° 0.1 mm 3 mps 731 mmHg 85%
    18:00 +2°C° 0.1 mm 2 mps 731 mmHg 88%
    19:00 +1°C° 0 mm 2 mps 732 mmHg 88%
    20:00 +1°C° 0 mm 2 mps 732 mmHg 89%
    21:00 +1°C° 0 mm 2 mps 733 mmHg 89%
    22:00 +1°C° 0 mm 2 mps 733 mmHg 90%
    23:00 +1°C° 0 mm 2 mps 733 mmHg 92%

    3 March, Tuesday

    Time Temperature Precipitation Wind Pressure Humidity
    00:00 +1°C° 0 mm 2 mps 734 mmHg 93%
    01:00 0°C° 0 mm 3 mps 733 mmHg 94%
    02:00 0°C° 0 mm 3 mps 733 mmHg 94%
    03:00 0°C° 0 mm 3 mps 733 mmHg 94%
    04:00 0°C° 0.1 mm 3 mps 733 mmHg 94%
    05:00 -1°C° 0.1 mm 4 mps 734 mmHg 94%
    06:00 0°C° 0.1 mm 4 mps 734 mmHg 94%
    07:00 0°C° 0.2 mm 5 mps 734 mmHg 92%
    08:00 0°C° 0.2 mm 5 mps 733 mmHg 90%
    09:00 +1°C° 0.2 mm 5 mps 733 mmHg 88%
    10:00 +1°C° 0 mm 5 mps 733 mmHg 85%
    11:00 +2°C° 0 mm 6 mps 733 mmHg 81%
    12:00 +2°C° 0 mm 6 mps 733 mmHg 77%
    13:00 +3°C° 0 mm 5 mps 733 mmHg 74%
    14:00 +3°C° 0 mm 5 mps 732 mmHg 72%
    15:00 +5°C° 0 mm 5 mps 732 mmHg 69%
    16:00 +4°C° 0.1 mm 4 mps 732 mmHg 77%
    17:00 +3°C° 0.1 mm 4 mps 731 mmHg 86%
    18:00 +1°C° 0.1 mm 4 mps 731 mmHg 94%
    19:00 +2°C° 0.1 mm 3 mps 731 mmHg 94%
    20:00 +2°C° 0.1 mm 3 mps 731 mmHg 95%
    21:00 +3°C° 0.1 mm 2 mps 730 mmHg 95%
    22:00 +3°C° 0.3 mm 2 mps 730 mmHg 96%
    23:00 +2°C° 0.3 mm 3 mps 730 mmHg 96%
    Show more